CAPE
0 0 0 0 0 0 0 0 0 0 23 201 43 6 17 164 166 93 436 451 565 754 590 486 418 372 373 305 242 275 262 406 519 330 222 209 201 131 17 0 0 1 3 4 2 1 0 0 0
0 0 0 0 0 0 0 0 0 0 592 572 392 335 317 232 652 636 549 712 599 581 468 490 413 366 365 375 431 375 579 164 10 0 0 0 0 0 0 0 0 0 0 0 0 0 0 0 0
0 0 0 0 0 0 0 0 0 45 717 720 546 611 617 520 680 612 706 805 649 444 484 474 481 519 525 530 598 546 92 0 0 0 0 0 0 0 0 0 0 0 0 0 0 0 0 0 0
0 0 0 0 0 0 0 0 0 516 599 836 774 627 668 707 670 745 859 756 487 438 455 542 609 586 747 577 520 105 0 0 0 0 0 0 0 0 0 0 0 0 0 0 0 0 0 0 0
0 0 0 0 0 0 0 0 0 542 384 963 703 581 677 822 721 894 818 597 353 421 483 610 646 803 697 474 122 0 0 0 0 0 0 0 0 0 0 0 0 0 0 0 0 0 0 0 0
0 0 0 0 0 0 0 0 0 11 204 870 764 746 813 839 927 804 620 463 403 357 638 773 832 784 449 128 0 0 0 0 0 0 0 0 0 0 0 0 0 0 0 0 0 0 0 0 0
0 0 0 0 0 0 0 0 0 8 352 862 789 529 864 946 815 643 541 521 501 638 715 761 599 378 47 0 0 0 0 0 0 0 0 0 0 0 0 0 0 0 0 0 0 0 0 0 0
0 0 0 0 0 0 0 0 0 0 216 633 628 315 599 1023 846 623 570 529 562 620 605 399 92 0 0 0 0 0 0 0 0 0 0 0 0 0 0 0 0 0 0 0 0 0 0 0 0
0 0 0 0 0 0 0 0 0 34 418 703 703 718 990 1039 813 700 657 576 524 469 304 49 0 0 0 0 0 0 0 0 0 0 0 0 0 0 0 0 0 0 0 0 0 0 0 0 0
0 0 0 0 0 0 0 0 13 135 395 698 752 990 1167 1110 949 885 725 560 477 360 135 0 0 0 0 0 0 0 0 0 0 0 0 0 0 0 0 0 0 0 0 0 0 0 0 0 0
0 0 0 0 0 0 0 0 1 153 214 535 641 987 1267 1234 1056 755 588 492 412 235 61 0 0 0 0 0 0 0 0 0 0 0 0 0 0 0 0 0 0 0 0 0 0 0 0 0 0
0 0 0 0 0 0 0 0 0 128 187 139 881 1184 1202 1084 914 696 566 449 333 153 3 0 0 0 0 0 0 0 0 0 0 0 0 0 0 0 0 0 0 0 0 0 0 0 0 0 0
0 0 0 0 0 0 0 0 0 15 6 650 1118 1160 1063 913 741 548 496 354 100 1 0 0 0 0 0 0 0 0 0 0 0 0 0 0 0 0 0 0 0 0 0 0 0 0 0 0 0
0 5 0 0 0 0 0 0 0 0 178 1037 1143 957 941 871 689 419 343 263 27 0 0 0 0 0 0 0 0 0 0 0 0 0 0 0 0 0 0 0 0 0 0 0 0 0 0 0 0
0 0 0 0 0 0 0 0 0 0 372 794 878 869 929 764 584 589 342 206 0 0 0 0 0 0 0 0 0 0 0 0 0 0 0 0 0 0 0 0 0 0 0 0 0 0 0 0 0
14 0 0 0 0 0 0 0 0 3 252 422 397 493 625 604 625 473 305 184 0 0 0 0 0 0 0 0 0 0 0 0 0 0 0 0 0 0 0 0 0 0 0 0 0 0 0 0 0
8 0 0 0 0 0 0 0 0 54 182 189 345 447 461 564 759 655 462 294 79 0 0 0 0 0 0 0 0 0 0 0 0 0 0 0 0 0 0 0 0 0 0 0 0 0 0 0 0
0 0 0 0 0 0 0 0 0 69 186 128 159 207 148 19 286 696 619 306 155 0 0 0 0 0 0 0 0 0 0 0 0 0 0 0 0 0 0 0 0 0 0 0 0 0 0 0 0
0 0 0 0 0 0 0 0 5 83 128 108 131 146 294 150 248 468 705 351 72 0 0 0 0 0 0 0 0 0 0 0 0 0 0 0 0 0 0 0 0 0 0 0 0 0 0 0 0
0 0 0 0 0 0 0 0 1 8 21 56 69 11 174 231 284 459 394 131 67 10 0 0 0 0 0 0 0 0 0 0 0 0 0 0 0 0 0 0 0 0 0 0 0 0 0 0 0
0 0 0 0 0 0 4 10 0 0 0 0 0 15 153 200 260 368 155 18 0 0 0 0 0 0 0 0 0 0 0 0 0 0 0 0 0 0 0 0 0 0 0 0 0 0 0 0 0
0 0 0 0 10 14 0 15 0 0 0 0 0 0 42 176 127 126 1 0 0 0 0 0 0 0 0 0 0 0 0 0 0 0 0 0 0 0 0 0 0 0 0 0 0 0 0 0 0
0 0 0 0 0 2 0 3 0 0 0 0 0 0 0 32 126 10 0 0 0 0 0 0 0 0 0 0 0 0 0 0 0 0 0 0 0 0 0 0 0 0 0 0 0 0 0 0 0
0 0 0 0 1 6 0 0 0 0 0 0 0 0 0 0 0 0 0 0 0 0 0 0 0 0 0 0 0 0 0 0 0 0 0 0 0 0 0 0 0 0 0 0 0 0 0 0 0
0 9 1 1 0 0 0 0 0 0 0 0 0 0 0 0 0 0 0 0 0 0 0 0 0 0 0 0 0 0 0 0 0 0 0 0 0 0 0 0 0 0 0 0 0 0 0 0 0
0 1 0 0 0 0 0 0 0 0 0 0 0 0 0 0 0 0 0 0 0 0 0 0 0 0 0 0 0 0 0 0 0 0 0 0 0 0 0 0 0 0 0 0 0 0 0 0 0
0 0 0 0 0 0 0 0 0 0 0 0 0 0 0 0 0 0 0 0 0 0 0 0 0 0 0 0 0 0 0 0 0 0 0 0 0 0 0 0 0 0 0 0 0 0 0 0 0
0 0 0 0 0 0 0 0 0 0 0 0 0 0 0 0 0 0 0 0 0 0 0 0 0 0 0 0 0 0 0 0 0 0 0 0 0 0 0 0 0 0 0 0 0 0 0 0 0
0 0 0 0 0 0 0 0 0 0 0 0 0 0 0 0 0 0 0 0 0 0 0 0 0 0 0 0 0 0 0 0 0 0 0 0 0 0 0 0 0 0 0 0 0 0 0 0 0
0 0 0 0 0 0 0 0 0 0 0 0 0 0 0 0 0 0 0 0 0 0 0 0 0 0 0 0 0 0 0 0 0 0 0 0 0 0 0 0 0 0 0 0 0 0 0 0 0
CIN
-0 -0 -0 -0 -0 -0 -0 -0 -0 -0 -235 -302 -380 -389 -349 -360 -231 -224 -288 -249 -169 -64 -69 -69 -71 -65 -52 -71 -88 -59 -67 -20 -13 -53 -94 -99 -106 -168 -233 -0 -0 -0 -0 -0 -0 -0 -0 -0 -0
-0 -0 -0 -0 -0 -0 -0 -0 -0 -0 -164 -250 -247 -250 -229 -239 -252 -256 -254 -161 -155 -127 -131 -76 -83 -80 -60 -48 -16 -20 -0 -128 -150 -0 -0 -0 -0 -0 -0 -0 -0 -0 -0 -0 -0 -0 -0 -0 -0
-0 -0 -0 -0 -0 -0 -0 -0 -0 -61 -193 -164 -178 -249 -223 -240 -258 -281 -224 -158 -161 -181 -122 -113 -67 -28 -14 -3 -1 -5 -196 -0 -0 -0 -0 -0 -0 -0 -0 -0 -0 -0 -0 -0 -0 -0 -0 -0 -0
-0 -0 -0 -0 -0 -0 -0 -0 -0 -148 -194 -185 -201 -130 -243 -277 -271 -249 -195 -188 -247 -210 -154 -92 -41 -18 -0 -7 -10 -200 -1 -0 -0 -0 -0 -0 -0 -0 -0 -0 -0 -0 -0 -0 -0 -0 -0 -0 -0
-0 -0 -0 -0 -0 -0 -0 -0 -0 -110 -183 -141 -220 -199 -242 -225 -277 -203 -203 -252 -322 -238 -171 -81 -34 -3 -4 -35 -206 -0 -0 -0 -0 -0 -0 -0 -0 -0 -0 -0 -0 -0 -0 -0 -0 -0 -0 -0 -0
-0 -0 -0 -0 -0 -0 -0 -0 -0 -180 -220 -163 -170 -231 -209 -225 -210 -215 -268 -303 -299 -290 -116 -42 -19 -15 -71 -226 -0 -0 -0 -0 -0 -0 -0 -0 -0 -0 -0 -0 -0 -0 -0 -0 -0 -0 -0 -0 -0
-0 -0 -0 -0 -0 -0 -0 -0 -0 -79 -156 -130 -218 -208 -216 -198 -230 -264 -286 -270 -240 -154 -101 -51 -74 -130 -345 -0 -0 -0 -0 -0 -0 -0 -0 -0 -0 -0 -0 -0 -0 -0 -0 -0 -0 -0 -0 -0 -0
-0 -0 -0 -0 -0 -0 -0 -0 -0 -0 -142 -236 -280 -190 -263 -216 -234 -266 -256 -238 -192 -145 -131 -179 -341 -0 -0 -0 -0 -0 -0 -0 -0 -0 -0 -0 -0 -0 -0 -0 -0 -0 -0 -0 -0 -0 -0 -0 -0
-0 -0 -0 -0 -0 -0 -0 -0 -0 -129 -148 -181 -247 -301 -252 -241 -259 -246 -207 -201 -198 -188 -246 -414 -0 -0 -0 -0 -0 -0 -0 -0 -0 -0 -0 -0 -0 -0 -0 -0 -0 -0 -0 -0 -0 -0 -0 -0 -0
-0 -0 -0 -0 -0 -0 -0 -0 -156 -120 -131 -121 -202 -217 -210 -216 -251 -231 -224 -237 -227 -233 -345 -0 -0 -0 -0 -0 -0 -0 -0 -0 -0 -0 -0 -0 -0 -0 -0 -0 -0 -0 -0 -0 -0 -0 -0 -0 -0
-0 -0 -0 -0 -0 -0 -0 -0 -23 -83 -109 -131 -149 -214 -177 -146 -214 -281 -277 -273 -259 -315 -429 -0 -0 -0 -0 -0 -0 -0 -0 -0 -0 -0 -0 -0 -0 -0 -0 -0 -0 -0 -0 -0 -0 -0 -0 -0 -0
-0 -0 -0 -0 -0 -0 -0 -0 -0 -87 -104 -253 -184 -173 -170 -178 -186 -269 -285 -298 -303 -389 -120 -0 -0 -0 -0 -0 -0 -0 -0 -0 -0 -0 -0 -0 -0 -0 -0 -0 -0 -0 -0 -0 -0 -0 -0 -0 -0
-0 -0 -0 -0 -0 -0 -0 -0 -0 -25 -46 -200 -148 -120 -135 -185 -191 -248 -266 -325 -428 -281 -0 -0 -0 -0 -0 -0 -0 -0 -0 -0 -0 -0 -0 -0 -0 -0 -0 -0 -0 -0 -0 -0 -0 -0 -0 -0 -0
-0 -3 -0 -0 -0 -0 -0 -0 -0 -0 -215 -117 -133 -117 -122 -158 -181 -264 -294 -315 -443 -0 -0 -0 -0 -0 -0 -0 -0 -0 -0 -0 -0 -0 -0 -0 -0 -0 -0 -0 -0 -0 -0 -0 -0 -0 -0 -0 -0
-2 -0 -0 -0 -0 -0 -0 -0 -0 -0 -153 -77 -77 -78 -114 -122 -181 -193 -265 -301 -0 -0 -0 -0 -0 -0 -0 -0 -0 -0 -0 -0 -0 -0 -0 -0 -0 -0 -0 -0 -0 -0 -0 -0 -0 -0 -0 -0 -0
-14 -0 -0 -0 -0 -0 -0 -0 -0 -50 -110 -91 -94 -123 -126 -128 -133 -165 -226 -282 -68 -0 -0 -0 -0 -0 -0 -0 -0 -0 -0 -0 -0 -0 -0 -0 -0 -0 -0 -0 -0 -0 -0 -0 -0 -0 -0 -0 -0
-7 -0 -0 -0 -0 -0 -0 -0 -0 -154 -119 -78 -111 -108 -104 -74 -54 -93 -133 -192 -305 -0 -0 -0 -0 -0 -0 -0 -0 -0 -0 -0 -0 -0 -0 -0 -0 -0 -0 -0 -0 -0 -0 -0 -0 -0 -0 -0 -0
-0 -0 -0 -0 -0 -0 -0 -0 -0 -116 -105 -83 -104 -107 -126 -88 -63 -59 -56 -145 -213 -0 -0 -0 -0 -0 -0 -0 -0 -0 -0 -0 -0 -0 -0 -0 -0 -0 -0 -0 -0 -0 -0 -0 -0 -0 -0 -0 -0
-0 -0 -0 -0 -0 -0 -0 -0 -97 -92 -105 -81 -110 -123 -95 -103 -65 -67 -42 -82 -206 -0 -0 -0 -0 -0 -0 -0 -0 -0 -0 -0 -0 -0 -0 -0 -0 -0 -0 -0 -0 -0 -0 -0 -0 -0 -0 -0 -0
-0 -0 -0 -0 -0 -0 -0 -0 -100 -125 -99 -98 -91 -54 -98 -136 -123 -38 -70 -131 -140 -211 -0 -0 -0 -0 -0 -0 -0 -0 -0 -0 -0 -0 -0 -0 -0 -0 -0 -0 -0 -0 -0 -0 -0 -0 -0 -0 -0
-0 -0 -0 -0 -0 -0 -4 -30 -0 -0 -0 -0 -0 -94 -127 -125 -137 -66 -98 -77 -0 -0 -0 -0 -0 -0 -0 -0 -0 -0 -0 -0 -0 -0 -0 -0 -0 -0 -0 -0 -0 -0 -0 -0 -0 -0 -0 -0 -0
-3 -0 -0 -0 -15 -16 -0 -5 -0 -0 -0 -0 -0 -16 -208 -147 -113 -194 -15 -0 -0 -0 -0 -0 -0 -0 -0 -0 -0 -0 -0 -0 -0 -0 -0 -0 -0 -0 -0 -0 -0 -0 -0 -0 -0 -0 -0 -0 -0
-0 -0 -0 -0 -0 -2 -0 -3 -2 -0 -0 -0 -0 -0 -0 -233 -172 -185 -0 -0 -0 -0 -0 -0 -0 -0 -0 -0 -0 -0 -0 -0 -0 -0 -0 -0 -0 -0 -0 -0 -0 -0 -0 -0 -0 -0 -0 -0 -0
-0 -0 -8 -0 -30 -6 -0 -0 -0 -0 -0 -0 -0 -0 -0 -0 -0 -0 -0 -0 -0 -0 -0 -0 -0 -0 -0 -0 -0 -0 -0 -0 -0 -0 -0 -0 -0 -0 -0 -0 -0 -0 -0 -0 -0 -0 -0 -0 -0
-0 -37 -6 -22 -0 -0 -0 -0 -0 -0 -0 -0 -0 -0 -0 -0 -0 -0 -0 -0 -0 -0 -0 -0 -0 -0 -0 -0 -0 -0 -0 -0 -0 -0 -0 -0 -0 -0 -0 -0 -0 -0 -0 -0 -0 -0 -0 -0 -0
-0 -4 -7 -0 -0 -0 -0 -0 -0 -0 -0 -0 -0 -0 -0 -0 -0 -0 -0 -0 -0 -0 -0 -0 -0 -0 -0 -0 -0 -0 -0 -0 -0 -0 -0 -0 -0 -0 -0 -0 -0 -0 -0 -0 -0 -0 -0 -0 -0
-0 -0 -0 -0 -0 -0 -0 -0 -0 -0 -0 -0 -0 -0 -0 -0 -0 -0 -0 -0 -0 -0 -0 -0 -0 -0 -0 -0 -0 -0 -0 -0 -0 -0 -0 -0 -0 -0 -0 -0 -0 -0 -0 -0 -0 -0 -0 -0 -0
-0 -0 -0 -0 -0 -0 -0 -0 -0 -0 -0 -0 -0 -0 -0 -0 -0 -0 -0 -0 -0 -0 -0 -0 -0 -0 -0 -0 -0 -0 -0 -0 -0 -0 -0 -0 -0 -0 -0 -0 -0 -0 -0 -0 -0 -0 -0 -0 -0
-0 -0 -0 -0 -0 -0 -0 -0 -0 -0 -0 -0 -0 -0 -0 -0 -0 -0 -0 -0 -0 -0 -0 -0 -0 -0 -0 -0 -0 -0 -0 -0 -0 -0 -0 -0 -0 -0 -0 -0 -0 -0 -0 -0 -0 -0 -0 -0 -0
-0 -0 -0 -0 -0 -0 -0 -0 -0 -0 -0 -0 -0 -0 -0 -0 -0 -0 -0 -0 -0 -0 -0 -0 -0 -0 -0 -0 -0 -0 -0 -0 -0 -0 -0 -0 -0 -0 -0 -0 -0 -0 -0 -0 -0 -0 -0 -0 -0
Wind_Speed
27 25 23 21 23 23 27 22 19 17 16 18 11 11 10 12 11 13 6 24 22 24 24 23 22 22 21 20 20 20 20 20 20 21 21 22 23 23 24 25 25 25 24 24 25 26 26 27 28
26 24 21 22 28 28 30 22 19 18 17 8 8 10 12 12 13 7 4 20 22 23 24 23 23 22 21 20 19 19 19 20 20 21 21 22 23 24 24 25 25 25 25 23 23 24 23 19 14
24 22 25 27 30 32 28 23 19 16 14 17 14 14 13 13 10 6 3 18 17 21 22 22 21 20 20 19 19 19 19 20 20 21 21 22 23 24 24 25 26 26 25 23 23 25 26 25 26
24 25 26 36 40 32 29 23 20 12 20 17 13 12 13 16 3 6 12 14 16 19 20 20 20 19 19 18 18 18 19 19 20 20 21 22 22 23 25 26 26 27 27 27 27 26 26 27 27
23 26 37 43 41 32 32 24 20 15 18 18 18 15 13 11 6 9 12 14 16 17 17 19 19 18 18 18 18 18 19 19 20 21 21 22 22 23 25 25 27 27 28 27 28 28 27 27 28
28 29 42 49 42 34 32 25 21 22 19 19 18 15 14 8 2 7 10 13 15 17 16 17 17 17 17 17 17 18 19 19 20 21 21 22 22 23 25 26 26 27 28 28 28 29 29 29 29
32 36 43 43 42 38 33 29 25 23 21 23 15 17 15 10 1 7 9 10 11 13 14 15 15 16 16 17 17 18 18 19 20 21 21 22 23 24 25 26 27 27 28 29 30 30 30 31 31
30 34 41 39 43 42 33 30 26 25 24 18 19 18 19 9 4 4 8 10 10 10 12 13 14 15 15 16 16 17 18 19 20 21 21 22 23 24 25 26 27 28 30 30 31 31 32 33 32
27 38 44 40 40 41 32 32 28 22 22 21 22 18 17 8 6 4 3 4 6 6 9 10 11 12 14 15 16 17 18 19 21 21 22 22 23 24 25 27 28 30 31 30 31 33 34 34 32
34 42 39 34 33 37 34 34 29 28 25 26 22 18 8 9 8 5 3 2 4 6 6 8 9 11 13 14 15 17 18 19 21 21 21 22 23 24 25 27 28 30 31 31 32 34 35 35 33
35 43 35 32 30 31 36 34 31 32 33 29 24 16 12 11 9 6 5 2 4 5 5 6 8 10 12 13 14 16 18 19 20 21 21 22 23 24 26 27 28 30 31 32 33 34 35 35 34
33 38 34 29 27 30 32 34 35 32 31 28 22 15 16 14 13 8 8 5 2 3 5 6 8 10 12 13 14 16 17 19 20 20 21 22 23 25 26 28 29 31 32 33 33 34 34 36 34
29 34 38 33 31 29 30 33 36 35 28 22 18 18 17 15 15 11 6 6 4 3 3 6 7 9 11 12 14 15 17 18 19 20 21 22 23 25 26 28 29 30 31 33 34 34 34 35 35
27 28 39 33 31 30 31 32 33 33 26 21 20 20 18 18 16 12 10 7 5 6 4 6 8 9 10 12 14 15 17 17 19 20 21 21 22 24 26 28 29 30 32 32 33 33 34 35 36
20 31 30 42 34 32 28 36 37 30 26 24 23 20 18 19 17 13 11 8 10 5 5 6 7 9 10 12 13 15 16 17 19 20 21 21 22 24 26 28 30 31 31 32 33 33 34 36 36
20 23 36 36 36 33 29 42 35 30 27 27 23 20 20 20 16 16 11 8 6 9 8 7 7 8 10 12 14 15 17 18 19 20 21 22 22 23 26 28 30 30 31 31 33 33 34 35 35
19 28 35 34 34 33 33 38 32 30 30 26 25 23 19 18 18 18 15 10 11 8 8 9 9 10 11 13 14 16 17 19 19 20 21 22 22 24 25 27 29 29 30 31 32 32 32 33 35
19 23 28 32 32 34 35 37 32 31 32 29 25 24 24 22 19 19 20 17 11 10 11 11 12 11 11 13 15 17 18 19 20 20 21 22 22 24 25 27 28 29 31 32 32 32 31 29 34
20 23 24 26 26 31 36 35 32 30 32 32 28 26 25 21 23 25 21 17 13 13 13 13 11 10 11 15 16 18 19 20 21 21 22 23 23 24 25 27 28 28 30 31 31 30 30 29 34
23 24 23 23 22 27 31 32 31 31 31 32 31 31 27 20 17 13 15 15 15 13 15 15 12 11 12 15 16 17 19 20 21 22 22 22 23 25 26 27 28 28 29 30 30 30 29 27 30
19 23 24 22 20 19 25 30 32 31 30 33 31 30 24 23 19 17 16 18 13 15 18 16 13 13 14 13 15 17 19 21 21 21 22 24 25 25 26 27 28 29 28 29 28 27 28 29 27
21 20 24 24 21 28 23 34 33 33 34 33 33 29 26 24 23 19 18 16 17 18 17 16 15 14 14 12 15 17 20 21 20 21 22 24 25 25 26 28 29 29 28 28 27 26 25 25 29
19 17 17 19 19 19 24 26 30 27 36 35 30 28 25 22 16 12 14 16 16 19 19 18 18 16 15 14 15 17 19 19 20 21 23 24 25 26 27 29 29 30 29 28 28 29 27 24 26
12 12 11 13 19 24 23 26 25 29 33 30 29 26 25 23 19 14 16 15 18 19 19 19 18 16 14 13 15 17 18 19 20 22 23 25 26 27 28 30 29 29 29 29 29 29 27 26 25
16 14 15 16 19 21 23 26 21 21 25 27 29 25 20 18 17 16 15 15 16 18 19 18 16 14 13 13 15 17 18 20 21 22 24 27 29 30 31 31 32 31 30 30 29 30 29 29 29
9 18 21 18 21 21 21 26 24 22 21 24 27 26 19 16 16 18 14 14 15 17 17 16 15 14 15 15 16 17 18 19 21 23 25 28 30 31 30 31 31 31 30 30 31 31 31 31 30
18 18 13 14 18 21 24 25 25 22 21 20 20 20 20 18 16 15 15 16 16 16 16 15 15 15 15 15 16 18 19 21 24 25 26 29 29 30 31 31 31 31 30 31 32 33 34 32 32
17 15 13 16 20 22 24 27 25 24 22 20 18 17 19 18 17 16 15 14 15 14 15 14 15 15 16 16 18 20 22 23 25 27 30 30 31 31 32 33 32 33 33 33 34 34 34 35 34
17 18 17 18 19 23 23 26 22 24 24 21 18 18 18 17 16 15 15 15 15 15 16 17 17 17 18 19 20 22 24 26 27 29 30 31 32 33 34 33 34 34 35 35 36 36 36 36 36
16 17 18 19 19 21 20 20 18 18 17 19 18 17 17 17 15 14 14 15 16 18 19 19 19 20 20 20 22 24 26 28 30 31 32 33 34 33 34 34 35 35 36 36 37 38 37 38 38
Wind_Direction
266 269 272 268 260 263 256 260 267 261 260 250 263 279 298 297 316 317 275 161 109 112 113 110 104 98 90 80 74 60 47 42 27 16 16 15 13 14 15 19 22 26 30 27 21 16 9 0 351
262 263 262 260 254 250 252 257 261 260 255 253 259 280 285 293 287 321 37 107 109 111 112 110 104 99 90 78 69 55 41 29 23 20 16 14 15 16 18 20 24 26 31 33 32 25 26 34 40
254 257 250 252 251 244 248 252 260 260 243 248 255 271 280 287 300 43 28 100 98 104 108 103 97 92 85 76 63 45 33 26 21 16 13 14 16 18 21 23 24 26 31 35 30 20 12 14 6
249 249 252 247 245 246 246 253 257 241 249 249 255 264 281 269 326 303 86 94 96 100 102 98 93 89 80 68 50 40 30 23 16 13 12 14 17 18 17 21 21 20 22 23 23 23 18 12 7
247 246 242 245 243 246 241 252 252 234 247 246 249 259 268 270 313 78 90 94 98 98 96 96 91 84 75 60 47 35 26 18 12 9 11 13 18 17 11 18 19 21 21 22 19 15 14 12 7
240 242 240 240 241 241 240 244 248 245 250 244 251 255 260 285 35 89 89 93 97 100 94 89 82 73 64 58 44 30 21 16 11 5 5 7 10 9 11 18 24 24 20 17 16 13 9 7 6
239 239 241 242 240 237 238 237 244 244 248 244 247 254 262 255 185 95 88 85 87 89 86 82 76 68 61 52 37 24 18 13 8 5 4 7 6 9 12 16 20 20 18 15 12 10 7 4 2
240 242 241 244 236 237 236 237 246 245 246 248 249 257 249 236 179 113 86 85 83 80 81 79 73 67 55 43 28 17 11 8 8 3 2 3 3 8 9 12 15 15 11 11 11 8 4 1 0
242 240 238 241 238 235 238 238 242 249 245 247 249 257 257 166 150 150 102 66 65 63 71 71 63 48 44 36 19 8 4 4 1 359 1 1 4 9 13 11 12 9 9 13 10 6 3 2 2
238 236 240 244 246 238 240 238 239 241 242 243 247 257 216 187 169 166 177 101 79 79 52 49 39 40 38 25 13 6 3 359 357 358 2 3 5 8 11 11 11 10 11 11 8 5 2 1 3
238 236 240 243 246 244 238 238 243 239 239 241 243 238 210 215 204 201 204 147 95 77 45 40 39 35 23 17 7 2 357 356 357 360 2 5 6 6 7 9 10 9 8 7 6 5 4 4 4
240 237 238 242 247 245 239 242 239 239 243 246 243 230 219 222 228 218 224 235 119 59 53 40 27 22 15 7 359 356 352 353 357 360 360 2 3 5 8 8 7 7 6 5 4 4 4 3 5
244 239 237 243 249 249 245 240 237 239 246 242 230 227 225 226 235 241 222 241 256 297 15 16 14 12 15 8 355 354 352 355 357 357 357 360 3 5 7 5 6 5 4 2 2 3 4 5 5
246 246 236 241 244 247 243 240 235 236 240 235 228 228 231 235 233 240 238 237 249 281 318 352 355 6 5 3 353 347 352 356 354 353 354 359 2 3 2 2 3 2 0 1 3 5 5 4 3
257 240 244 236 239 243 247 236 233 235 235 230 233 235 234 238 241 240 243 240 255 282 311 325 351 359 356 358 355 343 348 350 348 349 352 356 360 0 360 359 358 357 360 1 3 3 4 3 4
257 247 234 235 234 240 240 231 232 233 231 231 232 235 240 245 245 254 249 248 258 276 293 322 341 351 349 346 348 341 343 342 342 346 348 350 354 357 356 355 355 357 359 0 1 2 2 4 5
258 241 234 236 232 233 235 233 233 230 229 230 232 237 241 248 256 260 259 258 262 278 295 307 320 334 339 340 343 337 337 336 339 344 345 346 350 352 353 352 353 356 358 358 359 2 4 4 1
254 249 238 232 228 229 235 234 232 229 229 232 234 239 241 243 259 262 256 261 271 280 290 303 312 326 333 335 336 332 329 331 336 339 342 345 347 347 348 350 352 355 355 356 358 359 2 5 356
253 244 236 235 233 230 232 233 232 230 232 233 237 243 245 251 259 263 262 268 277 282 287 295 311 323 327 326 326 326 325 328 331 335 338 341 343 345 346 347 349 352 353 354 357 358 358 359 352
236 236 231 234 237 234 232 233 234 231 234 235 238 242 245 253 265 278 271 278 278 289 288 296 312 317 320 324 327 328 327 327 328 330 335 341 342 342 343 345 347 350 350 352 354 355 353 355 356
233 231 228 231 234 241 231 236 233 236 239 240 245 252 259 262 269 270 271 275 290 293 286 299 311 313 315 322 327 327 325 325 328 331 335 336 338 341 343 346 346 348 350 350 352 352 350 349 355
230 240 224 229 231 226 236 231 236 236 238 241 247 255 260 262 261 268 271 282 281 289 303 310 310 311 313 318 321 322 323 325 330 332 333 334 339 341 343 345 346 347 349 349 351 350 351 350 345
240 239 234 237 234 235 236 238 237 241 236 239 246 251 255 261 269 275 276 281 291 289 299 309 310 311 312 314 318 322 324 328 330 331 333 335 338 341 342 342 343 343 346 346 343 340 342 345 342
257 233 246 249 239 238 238 239 242 241 242 245 248 253 254 257 263 270 274 284 288 297 305 310 312 313 317 320 322 324 325 327 329 330 331 332 335 337 339 340 341 342 342 341 338 335 339 338 337
234 229 239 246 242 243 242 241 246 258 251 248 249 250 254 256 257 265 276 291 304 303 306 310 314 318 322 322 322 324 326 327 327 329 329 329 330 333 335 337 338 339 339 338 336 333 334 333 331
264 232 235 249 246 246 244 245 245 255 259 255 251 249 254 257 261 265 288 300 306 307 309 313 316 318 320 322 322 325 326 327 327 328 328 328 329 332 336 337 338 337 338 337 334 334 332 330 329
233 242 268 268 262 249 248 246 249 254 260 261 253 247 251 258 268 280 289 298 304 307 311 316 319 321 322 323 325 325 328 326 325 328 331 329 332 333 335 335 335 335 335 334 331 330 327 327 327
216 237 271 268 246 245 245 241 244 248 257 259 250 250 252 261 271 282 289 303 309 314 319 322 324 324 325 325 325 325 326 329 330 330 328 329 331 332 332 331 331 331 331 330 328 327 326 325 325
190 184 208 203 222 224 237 239 247 247 252 254 246 251 256 264 275 286 296 305 312 316 317 318 321 323 323 325 327 328 329 330 330 329 329 328 328 328 327 328 328 328 327 327 325 324 324 323 322
191 200 199 173 180 204 226 242 254 256 264 241 246 254 260 266 277 287 297 306 311 313 316 318 321 325 329 330 331 330 330 329 328 327 327 327 326 327 327 326 325 324 324 324 323 321 321 319 318